Regional Weather Roundup
Issued by NWS Albany, NY

Home | Current Version | Previous Version | Text Only | Print | Product List | Glossary On
Versions: 1 2 3 4 5 6 7 8 9 10 11 12 13 14 15 16 17 18 19 20 21 22 23 24 25 26 27 28 29 30 31 32 33 34 35 36 37 38 39 40 41 42 43 44 45 46 47 48 49 50
000
ASUS41 KALY 270610
RWRALY

NEW YORK STATE HOURLY WEATHER ROUNDUP
NATIONAL WEATHER SERVICE ALBANY NY
100 AM EST SAT DEC 27 2014

NOTE: "FAIR" INDICATES FEW OR NO CLOUDS BELOW 12,000 FEET WITH NO
SIGNIFICANT WEATHER AND/OR NO OBSTRUCTIONS TO VISIBILITY.

NYZ032-033-038>043-046>054-057>066-NYZ062>081-270700-
EAST


CITY           SKY/WX    TMP DP  RH WIND       PRES   REMARKS
ALBANY         PTCLDY    29  25  85 CALM      30.16F
GLENS FALLS    MOCLDY    26  23  88 NW3       30.15S
POUGHKEEPSIE   PTCLDY    38  28  67 S6        30.18S WCI  33
NEWBURGH       CLEAR     34  28  80 W9        30.19S WCI  26
MONTGOMERY     PTCLDY    29  26  89 SW5       30.18S WCI  24
WHITE PLAINS   PTCLDY    39  28  64 W5        30.18S
ISLIP          CLEAR     34  28  79 W7        30.18S WCI  28
NEW YORK CITY  PTCLDY    43  30  60 CALM      30.20F
CENTRAL PARK   CLEAR     44  29  55 W7        30.22F
$$

NYZ005>009-017-018-044>046-055-056-270700-
CENTRAL


CITY           SKY/WX    TMP DP  RH WIND       PRES   REMARKS
FULTON         CLOUDY    36  28  73 SW3       30.15S
SYRACUSE       PTCLDY    29  26  89 CALM      30.16R
ROME           CLOUDY    28  26  92 CALM      30.17S
ELMIRA         MOCLDY    28  26  92 CALM      30.17R
BINGHAMTON     PTCLDY    34  27  75 SW5       30.13S WCI  30
MONTICELLO     CLEAR     28  25  86 CALM      30.17R
$$

NYZ026>034-041>043-270700-
NORTH


CITY           SKY/WX    TMP DP  RH WIND       PRES   REMARKS
WATERTOWN      MOCLDY    41  28  60 SW8       30.12S
FORT DRUM      NOT AVBL
MASSENA        CLOUDY    38  31  76 SW8       30.11F WCI  32
SARANAC LAKE   CLOUDY    35  29  78 SW3       30.06S
PLATTSBURGH    CLOUDY    40  31  70 CALM      30.10
$$

NYZ001>004-010>016-019>021-270700-
WEST


CITY           SKY/WX    TMP DP  RH WIND       PRES   REMARKS
NIAGARA FALLS  PTCLDY    35  32  88 S3        30.14S
BUFFALO        PTCLDY    38  31  76 S3        30.14S
DUNKIRK        PTCLDY    42  33  70 SW9       30.15S
JAMESTOWN      PTCLDY    36  28  75 S5        30.15R WCI  32
WELLSVILLE     PTCLDY    37  29  72 SW6       30.15R WCI  32
ROCHESTER      MOCLDY    32  28  85 CALM      30.15S
PENN YAN       MOCLDY    34  29  82 S5        30.14S WCI  30
$$

             KEY
       WCI = WIND CHILL INDEX
       VSB = VISIBILITY
       HX  = HEAT INDEX
$$


USA.gov is the U.S. government's official web portal to all federal, state and local government web resources and services.